Location: Big Meadow
(36.7100°N, 118.8650°W)
Time: 22:11:23
(UTC-07:00)

Daily predictions for brighter satellites

Satellite Brightness Start Highest point End
(mag) Time Altitude Azimuth Time Altitude Azimuth Time Altitude Azimuth
Cosmos 2233 Rocket 4.4 20:21:54 10° SSE 20:27:35 41° E 20:33:19 10° NNE
Envisat 3.4 20:27:07 10° S 20:32:10 70° WSW 20:37:15 10° NNW
Lacrosse 5 rocket 3.9 20:31:40 10° N 20:33:02 11° NNE 20:34:25 10° NE
H-2A R/B 4.0 20:31:06 10° E 20:33:06 12° ENE 20:35:06 10° NE
Cosmos 2208 Rocket 4.0 20:29:05 10° S 20:34:15 77° ESE 20:39:26 10° NNE
ATLAS 3B R/B 3.7 20:30:10 10° SW 20:37:12 54° NW 20:44:00 10° NNE
Cosmos 1939 Rocket 2.9 20:34:57 10° SSE 20:39:02 71° ENE 20:43:10 10° N
Meteor 1-18 Rocket 4.4 20:35:28 10° S 20:41:18 88° E 20:47:15 10° N
YAOGAN 6 2.7 20:41:06 10° S 20:44:48 81° W 20:48:29 10° NNW
Cosmos 1242 Rocket 3.5 20:42:44 10° NNE 20:46:01 31° ENE 20:49:12 10° SE
Cosmos 2322 Rocket 2.8 20:43:30 10° N 20:48:50 42° ENE 20:53:53 11° SE
GPS 2-05 Rocket1 3.8 20:54:14 10° SW 20:57:01 25° SSE 20:59:08 14° ESE
Cosmos 1340 Rocket 4.1 20:54:00 11° SE 20:57:02 24° E 21:00:19 10° NE
SL-16 R/B 2.4 20:53:33 10° NNW 20:59:08 56° ENE 21:04:05 13° SE
Thor Agena Rocket 4.1 20:56:08 10° N 21:01:19 63° WNW 21:06:26 10° SSW
OAO 1 Rocket 4.4 20:59:21 10° W 21:04:40 76° S 21:09:47 11° E
SJ-11-01 4.3 21:00:20 10° SSE 21:05:03 86° WSW 21:09:49 10° NNW
EPKM 3.9 20:59:58 10° WSW 21:05:08 20° SSW 21:07:02 14° SSE
Cosmos 540 Rocket 4.4 21:02:23 10° SSE 21:06:40 27° E 21:10:59 10° NE
Resurs 1-3 4.0 21:05:55 10° S 21:10:15 64° W 21:14:37 10° NNW
Spot 2 Rocket 3.5 21:05:40 10° SSE 21:10:42 85° ENE 21:15:46 10° NNW
ATLAS CENTAUR R/B 4.2 21:08:58 10° SW 21:14:44 77° NW 21:32:45 10° NE
Meteor 1-13 Rocket 4.3 21:10:12 10° S 21:16:02 68° E 21:21:57 10° NNE
Cosmos 1763 Rocket 3.6 21:12:20 10° SSW 21:17:39 86° WNW 21:22:58 10° NNE
Cosmos 1937 Rocket 3.5 21:12:49 10° NNW 21:17:57 67° ENE 21:21:45 18° SSE
Cosmos 1455 Rocket 3.7 21:15:04 10° N 21:19:08 38° E 21:21:29 21° SE
Cosmos 1464 Rocket 4.4 21:14:37 11° SSE 21:20:28 46° E 21:26:31 10° NNE
USA 186 4.3 21:18:03 10° SSW 21:20:36 21° W 21:23:14 10° NW
ERS-2 3.6 21:20:01 10° SSW 21:23:24 35° W 21:26:48 10° NNW
Cosmos 2298 Rocket 4.2 21:18:49 10° N 21:24:04 60° ENE 21:27:31 21° SE
Cosmos 841 Rocket 3.4 21:19:04 10° S 21:24:16 75° ESE 21:29:33 10° NNE
Cosmos 1975 Rocket 3.6 21:23:35 10° SSW 21:27:50 59° W 21:32:07 10° N
Tiangong 2 3.2 21:26:27 10° WNW 21:29:11 26° N 21:31:54 10° NE
Cosmos 1666 3.6 21:26:13 10° NNW 21:29:58 48° W 21:33:41 10° SSW
DELTA 2 R/B (1) 4.3 21:26:25 10° SSW 21:31:13 30° SE 21:34:19 18° E
Shenzhou-11 Module 2.9 21:28:26 10° NW 21:31:17 41° NNE 21:32:39 24° ENE
Cosmos 1975 4.1 21:27:35 10° NNW 21:31:21 39° W 21:35:05 10° SSW
USA 32 4.0 21:31:28 10° N 21:36:40 65° E 21:39:57 23° SSE
Cosmos 2360 Rocket 2.7 21:32:27 10° N 21:37:53 47° ENE 21:40:45 26° ESE
Cosmos 1980 Rocket 4.5 21:36:12 10° WNW 21:40:05 19° W 21:43:57 10° SW
Cosmos 2219 Rocket 4.2 21:37:40 10° NNE 21:40:43 15° NE 21:43:21 11° E
Atlas Centaur 2 2.9 21:38:35 10° WSW 21:41:08 17° SSW 21:41:23 17° SSW
Meteor 2-20 4.4 21:37:03 10° N 21:43:14 87° E 21:47:48 19° S
Cosmos 292 Rocket 4.0 21:40:49 10° SSW 21:45:33 70° WNW 21:50:19 10° NNE
Cosmos 1743 4.3 21:42:09 10° NNW 21:45:36 32° W 21:48:58 10° SSW
Cosmos 1544 Rocket 3.5 21:42:14 10° N 21:46:42 82° E 21:48:54 30° SSE
USA 234 3.6 21:41:17 10° NE 21:47:47 67° NW 21:54:17 10° WSW
Meteor 2-20 Rocket 4.4 21:41:54 10° N 21:48:03 73° E 21:51:48 25° SSE
MetOp-A 4.1 21:46:14 24° SSE 21:49:31 87° ENE 21:54:54 10° NNW
ERS-1 Rocket 3.2 21:47:42 31° SE 21:49:54 55° ENE 21:54:48 10° N
Cosmos 1356 3.4 21:49:20 30° SSW 21:50:56 82° W 21:54:25 10° N
Meteor 2-9 Rocket 4.2 21:47:21 10° NNW 21:52:43 75° W 21:56:20 22° S
Helios 1B rocket 3.5 21:52:28 10° NE 21:55:37 28° E 21:55:37 28° E
SJ 16-02 2.0 21:52:18 10° N 21:56:31 41° ENE 21:57:27 36° E
Cosmos 1536 Rocket 3.5 21:58:59 29° S 22:01:13 89° W 22:05:42 10° N
Resurs 01 Rocket 4.2 22:02:22 10° SW 22:05:05 16° W 22:07:49 10° NW
Aureole 2 Rocket 2.8 22:04:30 10° NNW 22:07:03 42° W 22:07:03 42° W
Cosmos 2333 Rocket 3.8 22:03:26 10° N 22:07:47 22° NE 22:09:41 19° E
Meteor 1-23 Rocket 4.2 22:04:04 19° S 22:08:08 82° W 22:13:44 10° N
SPOT 1/Viking Rocket 3.9 22:06:57 39° ESE 22:08:25 50° ENE 22:13:23 10° N
SL-08 RB Rocket 3.8 22:08:52 36° S 22:10:36 69° WSW 22:15:10 10° NNW
COSMOS 2428 3.6 22:05:48 10° N 22:11:00 36° ENE 22:12:38 30° E
H-2A R/B 2.1 22:09:40 33° S 22:11:50 70° WSW 22:16:52 10° NNW
Cosmos 1515 4.3 22:10:33 30° SW 22:12:12 54° W 22:15:59 10° N
CENTAUR R/B 3.6 22:06:53 10° WSW 22:12:33 46° NW 22:19:03 10° NNE
Lacrosse 5 rocket 1.6 22:08:57 10° NNW 22:13:11 56° NE 22:13:45 51° E
CZ-4C R/B 3.6 22:10:15 10° NNW 22:17:10 43° NE 22:20:58 27° ESE
Cosmos 1125 Rocket 3.7 22:12:03 10° N 22:17:13 56° ENE 22:18:20 46° ESE
ARGOS 4.0 22:19:27 23° SSW 22:22:28 45° W 22:27:38 10° NNW
Cosmos 2297 Rocket 4.1 22:26:10 15° ENE 22:26:10 15° ENE 22:27:50 10° ENE
Cosmos 2227 Rocket 3.8 22:29:30 19° ENE 22:29:30 19° ENE 22:31:58 10° NE
Cosmos 1092 Rocket 4.2 22:22:53 10° N 22:29:05 54° E 22:30:34 44° ESE
Nadezhda 4 Rocket 3.9 22:24:14 10° N 22:30:35 83° E 22:32:41 45° SSE
Cosmos 2322 Rocket 4.0 22:28:14 10° NW 22:32:32 23° W 22:35:43 14° SW
CARTOSAT-1 4.0 22:33:20 48° ENE 22:33:20 48° ENE 22:37:19 10° N
Cosmos 2322 3.7 22:27:42 10° NNW 22:33:27 82° WSW 22:34:53 53° S
DMSP B5D2-2 4.4 22:30:11 10° N 22:35:25 65° WNW 22:38:01 30° SSW
Cosmos 2237 Rocket 3.8 22:32:43 10° N 22:36:55 21° NE 22:38:17 19° ENE
Landsat 7 3.6 22:36:45 71° SE 22:37:09 78° ENE 22:41:55 10° N
Cosmos 1025 Rocket 3.1 22:41:10 66° WSW 22:41:30 70° W 22:45:53 10° N
Cosmos 1066 Rocket 4.0 22:40:28 60° S 22:41:30 86° E 22:46:58 10° N
SL-16 R/B 4.4 22:39:04 10° WNW 22:42:41 18° W 22:45:58 11° SW
Cosmos 1544 4.3 22:47:32 10° N 22:49:58 38° NNE 22:49:58 38° NNE
Cosmos 1606 Rocket 4.2 22:49:50 10° N 22:53:25 46° NE 22:53:25 46° NE
Terra 1.8 22:56:06 78° NE 22:56:06 78° NE 23:00:42 10° N
SPOT 5 3.3 22:56:22 46° WSW 22:56:33 46° W 23:00:56 10° NNW
Cosmos 2026 Rocket 4.1 22:51:18 10° N 22:57:19 55° E 22:57:49 54° E
Cosmos 2279 Rocket 4.3 22:58:36 48° E 22:58:43 48° E 23:04:38 10° NNE
Cosmos 2219 3.3 22:58:22 50° SW 22:59:56 77° WNW 23:05:43 10° NNE
Spot 1 4.4 23:00:52 58° NW 23:00:52 58° NW 23:04:15 10° NNW
SL-19 R/B 4.5 23:01:37 60° S 23:02:47 78° WSW 23:09:20 10° NNW
Helios 1A 4.3 23:04:44 31° W 23:04:44 31° W 23:08:21 10° NW
Tiangong 2 3.8 23:03:26 10° NW 23:04:38 19° NW 23:04:38 19° NW
Meteor 1-22 Rocket 4.0 23:03:02 10° N 23:08:09 70° ENE 23:08:09 70° ENE
YAOGAN 11 4.5 23:10:27 63° N 23:10:27 63° N 23:14:16 10° NNW
Cosmos 2142 Rocket 4.3 23:10:31 71° S 23:11:15 88° E 23:17:30 10° N
CZ-3 Stage 3 4.2 23:12:51 52° S 23:13:36 54° SSE 23:40:21 10° E
DELTA 2 R/B (1) 4.3 23:11:43 10° WSW 23:15:17 41° WSW 23:15:17 41° WSW
CZ-2C R/B 2.7 23:13:45 10° NNE 23:19:09 76° ENE 23:19:09 76° ENE
Cosmos 2360 Rocket 3.9 23:17:22 10° NW 23:21:28 21° W 23:22:32 20° WSW
Cosmos 2195 Rocket 4.4 23:19:06 10° N 23:25:14 74° W 23:25:47 69° SW
Cosmos 2219 Rocket 2.1 23:19:41 10° NNW 23:25:04 76° W 23:25:04 76° W
Cosmos 1627 Rocket 4.3 23:19:57 10° N 23:26:06 77° W 23:26:32 73° SW
Spot 4 4.5 23:27:18 51° NNE 23:27:18 51° NNE 23:31:11 10° N
Cosmos 1428 Rocket 4.3 23:21:48 10° N 23:27:55 76° E 23:27:59 76° E
Cosmos 1634 Rocket 4.5 23:27:33 46° SW 23:29:01 55° W 23:35:15 10° N
SJ 16-02 3.7 23:32:12 10° WNW 23:34:28 15° W 23:34:28 15° W
COSMOS 2455 2.8 23:37:08 79° NE 23:37:08 79° NE 23:42:50 10° NNE
CZ-2C R/B 3.5 23:38:16 56° W 23:38:16 56° W 23:43:31 10° NNW
Cosmos 2228 4.3 23:36:39 10° NNW 23:39:27 39° NNW 23:39:27 39° NNW
Cosmos 1538 Rocket 4.4 23:44:58 59° NW 23:44:58 59° NW 23:49:40 10° N
ADEOS Rocket 4.2 23:41:01 10° NE 23:44:05 25° ENE 23:44:05 25° ENE
Cosmos 2333 Rocket 2.8 23:46:49 10° NNW 23:51:42 49° W 23:51:42 49° W
SL-16 R/B 3.3 23:49:32 10° N 23:54:38 35° ENE 23:54:38 35° ENE
COSMOS 2428 4.1 23:50:17 10° NW 23:54:38 28° W 23:54:38 28° W
